Temperature
13 12 12 12 12 11 11 11 11 11 11 11 12 12 12 13 13 13 14 14 15 15 14 14 14 14 14 14 14 14 14 14 14 14 14 14 14 14 15 15 15 15 15
12 12 12 12 11 11 11 11 10 10 10 10 11 11 11 12 12 12 13 13 14 14 14 14 14 14 14 14 14 14 14 14 14 14 14 13 13 13 13 13 13 14 14
12 12 11 11 11 11 11 10 10 10 10 10 10 10 10 11 11 11 12 12 13 13 14 13 14 13 14 14 14 14 14 14 14 13 13 13 13 13 13 12 13 13 13
11 11 11 11 11 10 10 10 10 10 10 10 10 10 10 10 10 11 11 11 12 13 13 13 13 13 14 14 14 14 14 14 14 13 13 13 13 12 13 12 12 12 12
11 11 11 11 10 10 10 10 10 9 9 9 9 9 9 9 9 10 10 10 11 12 12 13 13 13 13 14 14 14 14 14 14 13 13 13 12 12 12 12 11 11 11
11 11 11 10 10 10 10 9 9 9 9 9 9 9 9 9 9 9 9 10 10 11 12 12 13 13 13 13 14 14 14 14 13 13 13 13 12 12 12 11 11 11 10
11 11 10 10 10 10 10 9 9 9 8 8 9 9 9 9 9 9 9 9 10 10 11 12 12 13 13 13 13 13 14 14 13 13 13 13 12 12 12 11 11 11 11
10 10 10 10 10 9 9 9 9 8 8 8 8 8 9 9 9 9 9 9 9 10 10 11 12 12 13 13 13 13 13 13 13 13 13 13 12 12 12 12 11 11 10
8 8 8 9 9 9 8 8 8 8 8 8 8 8 8 8 9 9 9 9 9 9 10 10 11 12 12 13 13 13 13 12 12 12 12 12 12 11 11 11 10 10 9
5 6 6 7 7 7 7 7 7 7 7 7 7 7 8 8 8 9 9 9 9 9 10 10 11 11 12 12 12 13 12 12 12 11 11 11 11 11 11 11 11 11 10
4 4 4 5 5 6 6 6 6 6 6 7 7 7 7 8 8 8 9 9 9 9 9 10 10 11 11 12 12 12 13 12 12 11 11 11 11 11 11 11 11 11 11
4 4 4 4 4 4 5 5 5 5 6 6 6 6 7 7 8 8 8 9 9 9 9 9 10 10 11 11 12 12 12 12 11 11 11 11 11 11 11 11 11 12 12
4 3 3 3 3 4 4 4 5 5 5 5 6 6 7 7 7 8 8 8 9 9 8 9 9 10 10 11 11 11 11 11 11 11 11 11 11 11 11 11 11 11 11
4 4 3 3 3 3 4 4 4 5 5 5 5 6 6 7 7 8 8 8 8 8 8 8 9 9 10 10 11 11 11 11 11 11 11 11 11 11 11 11 11 11 11
4 4 4 3 3 4 4 4 4 4 5 5 5 6 6 7 7 8 8 8 8 8 8 8 8 9 9 10 10 10 11 11 11 11 11 11 11 11 11 11 11 11 11
4 4 4 4 4 4 4 4 4 4 5 5 5 6 6 7 7 8 8 8 8 8 8 8 8 8 9 9 10 10 10 11 11 11 11 11 11 11 11 10 11 11 11
4 4 4 4 4 4 4 4 4 5 5 5 5 5 6 6 7 8 8 8 8 8 7 8 8 8 9 9 10 10 10 11 11 11 11 11 10 10 10 10 10 11 11
5 4 4 4 4 4 4 4 4 4 5 5 5 5 6 6 7 7 7 7 7 7 7 7 8 8 8 9 10 10 11 11 11 11 11 10 10 10 10 10 10 10 10
5 5 4 4 4 4 4 4 5 5 5 5 5 6 6 6 7 7 7 7 7 7 7 7 8 8 9 9 10 10 11 11 11 11 11 10 10 10 10 10 10 10 10
5 5 5 5 5 5 5 5 5 5 5 5 6 6 6 6 7 7 6 6 7 7 7 7 8 8 9 9 10 10 11 11 11 10 10 10 10 10 10 10 10 10 10
6 6 6 5 5 5 5 5 5 5 6 6 6 6 6 6 7 6 6 6 6 7 7 8 8 9 9 10 10 10 11 11 10 10 10 10 10 10 10 10 10 10 10
6 6 6 6 6 6 6 6 6 6 6 6 6 6 6 6 6 6 6 6 7 7 8 8 9 10 10 10 10 11 11 11 10 10 10 10 10 10 11 11 11 11 11
7 7 7 7 7 7 7 7 7 7 7 7 6 6 6 6 6 6 7 7 7 8 8 9 10 10 11 11 11 11 11 11 11 10 10 10 11 11 11 11 11 11 11
7 7 7 7 7 7 7 7 7 7 7 7 7 6 6 6 6 6 7 7 8 8 9 10 10 11 11 11 11 11 11 11 11 11 11 11 11 11 11 11 11 11 11
7 7 7 7 7 7 7 7 7 7 7 7 7 7 6 7 7 7 8 8 8 9 9 10 11 11 11 11 11 11 11 11 11 11 11 11 11 11 11 11 11 11 11
8 8 7 7 7 7 7 7 7 7 7 7 7 7 7 7 7 8 8 8 9 9 10 11 11 11 11 12 11 11 11 11 11 11 11 11 11 11 11 11 11 11 11
Wind_Speed
9 8 8 8 8 7 6 7 7 6 6 6 7 7 8 8 7 7 8 8 9 8 7 7 8 7 5 5 4 4 5 5 6 4 2 3 5 8 8 9 11 10 13
10 9 10 10 9 8 8 9 8 8 7 7 7 7 8 8 7 7 8 8 8 9 9 8 8 7 7 6 5 5 5 5 5 5 3 3 5 10 10 10 8 10 11
11 11 11 10 10 10 10 10 9 9 9 8 7 8 8 8 8 8 8 8 8 9 9 9 9 8 8 6 6 5 4 4 5 5 4 4 5 10 12 10 11 9 11
11 11 12 13 13 12 11 10 10 10 10 10 9 8 9 8 9 9 7 7 7 8 8 10 10 9 9 8 6 6 5 5 5 5 6 7 8 10 11 12 10 8 9
11 12 13 13 13 12 11 11 11 11 12 11 10 10 9 8 9 9 7 7 7 7 8 9 10 11 11 9 6 6 5 5 5 6 7 7 9 12 11 8 12 11 8
11 12 12 12 11 11 11 11 10 10 11 10 11 11 11 10 12 13 9 7 7 8 8 8 8 10 11 11 10 8 7 7 7 7 6 10 11 12 10 13 14 12 6
12 12 12 12 12 12 11 9 9 10 9 10 11 11 12 13 16 16 15 9 8 8 8 7 8 9 10 7 6 4 3 5 7 7 10 11 13 14 14 13 10 7 7
13 13 12 11 12 11 9 9 9 8 8 8 9 10 11 13 16 16 15 9 8 8 8 8 9 9 10 10 7 4 3 3 4 6 8 10 13 13 12 12 12 11 10
14 13 12 11 11 10 10 9 8 7 8 8 8 9 10 11 15 15 13 6 6 8 8 7 9 11 14 14 9 7 6 5 8 12 13 15 17 17 15 13 13 14 12
16 14 12 11 10 10 10 9 7 7 8 8 9 9 10 10 13 15 13 6 6 6 6 6 10 13 16 16 11 10 10 7 9 12 13 14 14 14 14 11 12 14 12
17 15 13 12 11 10 9 7 7 8 8 8 9 9 9 10 12 14 14 7 6 6 4 4 5 14 17 17 13 9 12 11 10 11 10 10 9 8 8 7 9 12 12
17 17 15 13 13 12 8 7 8 8 8 8 8 8 7 8 10 12 15 13 9 6 4 3 3 11 16 17 12 13 17 14 10 10 9 8 8 7 6 7 8 8 8
16 16 14 13 12 11 9 9 8 7 7 7 7 7 6 5 7 13 14 14 12 6 4 3 3 9 12 12 14 19 15 11 11 10 9 6 5 6 6 7 8 8 7
15 14 12 11 10 9 8 8 8 7 7 7 7 7 6 5 5 5 5 6 8 6 4 3 5 9 8 8 13 14 9 10 11 10 8 5 5 6 7 8 9 9 7
14 12 10 9 9 8 7 6 7 6 7 7 6 6 5 5 7 10 9 7 7 6 6 3 3 4 5 7 8 7 7 9 9 7 9 7 6 7 6 5 6 6 6
11 10 8 7 6 6 5 5 6 7 9 11 10 7 5 6 6 10 12 12 12 12 7 5 5 6 6 8 9 7 6 9 9 10 10 9 8 8 6 4 5 7 9
11 10 7 6 6 5 4 3 3 2 2 5 7 8 6 4 4 8 10 11 12 13 6 6 6 6 5 6 7 7 6 8 9 10 10 9 9 7 7 6 6 6 6
10 9 8 5 5 4 3 2 2 1 1 1 1 2 4 5 7 11 13 10 6 5 5 7 7 7 5 5 7 7 8 9 9 9 9 9 8 7 7 7 6 6 6
9 6 5 5 4 3 2 2 1 1 3 3 3 4 5 7 8 10 10 4 5 5 5 5 6 6 5 5 6 8 9 9 10 9 9 9 8 7 7 7 7 8 6
8 10 7 4 4 3 3 2 1 2 4 4 5 5 5 4 4 5 4 3 3 4 4 4 4 5 5 6 7 8 9 9 9 8 7 8 8 8 8 8 8 7 6
7 7 8 5 4 3 2 2 1 2 3 3 4 5 7 5 6 7 6 4 4 4 3 2 3 5 5 6 8 9 10 9 8 8 8 7 8 7 7 8 9 8 7
6 5 4 4 3 2 2 1 2 2 3 4 4 4 6 4 5 6 5 5 4 3 2 2 2 4 6 8 9 9 9 8 8 8 8 7 7 7 7 7 7 7 8
6 6 5 4 3 3 2 2 2 2 3 3 4 4 3 3 4 5 5 4 4 3 1 1 1 3 5 7 8 9 10 9 9 9 9 8 7 7 7 7 9 9 8
4 4 4 4 3 3 3 2 2 3 3 4 4 4 3 3 4 5 5 4 3 2 0 0 1 4 8 8 7 7 7 8 8 9 11 9 8 7 7 7 8 10 9
3 2 2 2 2 3 3 2 3 3 4 4 4 4 4 4 4 4 4 3 2 0 1 1 1 4 9 11 10 8 11 14 12 10 7 8 9 9 8 8 7 7 6
3 2 1 1 1 0 1 2 2 2 3 3 4 4 4 5 5 4 3 3 2 1 2 1 1 4 8 9 10 12 14 14 13 14 9 8 8 7 8 6 8 8 8
Wind_Direction
240 241 245 248 248 253 263 272 277 284 294 302 308 313 314 305 287 258 239 227 223 227 228 224 230 230 233 236 225 214 210 209 239 244 213 145 131 127 114 110 114 112 114
244 242 244 248 248 247 252 259 263 270 277 280 287 293 297 301 301 288 272 254 232 226 223 220 227 228 230 231 225 222 217 210 220 229 196 159 138 139 129 121 113 110 110
247 244 247 251 249 248 249 252 255 259 266 271 274 277 280 284 289 289 283 274 253 236 224 216 219 218 228 229 223 224 224 221 216 211 190 159 140 141 131 119 112 107 105
246 242 242 244 244 245 246 247 250 252 256 261 261 261 266 271 276 279 279 282 274 258 239 224 216 212 218 219 219 223 223 225 216 204 181 162 150 145 137 133 125 117 111
245 240 239 240 238 237 238 242 245 247 251 251 252 256 258 262 266 262 260 276 279 280 263 238 223 212 209 206 207 214 214 219 207 192 176 162 154 154 147 141 134 121 103
247 242 238 231 227 226 229 232 236 241 245 247 248 251 255 261 261 264 263 266 268 271 270 252 227 205 202 202 206 208 207 207 198 184 175 165 158 153 143 144 140 135 123
253 247 237 229 224 220 220 219 224 233 240 245 248 248 249 252 253 258 260 257 257 262 262 243 220 201 187 182 185 180 190 195 192 180 167 161 156 154 147 145 144 130 126
269 260 250 238 230 221 215 216 223 227 234 240 245 247 246 251 250 249 251 251 253 258 257 238 218 192 187 175 166 147 119 105 141 150 149 146 145 145 143 140 131 113 109
290 279 266 250 238 226 219 218 221 227 236 238 239 242 243 250 252 248 240 236 247 259 259 246 220 196 187 173 159 147 125 101 93 107 118 124 128 132 136 133 132 135 137
302 296 287 271 251 237 225 223 224 225 235 240 241 238 238 243 250 245 230 215 235 256 263 252 221 200 182 171 163 157 145 133 121 114 112 117 126 135 140 141 144 146 144
297 294 291 283 269 253 238 230 232 237 238 239 241 240 238 238 245 239 223 205 214 234 249 246 222 200 181 173 166 165 154 139 126 121 118 119 124 136 148 150 153 155 154
296 289 284 280 274 272 253 244 239 237 237 238 239 243 243 238 233 230 221 213 205 205 224 232 216 191 180 172 164 154 143 133 127 123 122 126 131 137 147 153 152 151 157
302 294 288 282 274 266 256 252 247 234 231 232 227 233 241 238 232 228 220 214 209 199 203 204 168 175 174 171 160 151 146 138 135 132 133 131 127 128 123 118 114 111 93
306 301 292 285 280 271 261 251 244 232 224 222 219 223 231 236 230 214 203 202 200 196 190 170 143 155 171 164 157 155 150 147 143 139 133 124 112 112 123 128 128 123 107
312 306 299 290 282 276 267 255 242 228 214 206 208 206 209 227 227 200 184 188 187 184 159 144 137 152 161 156 159 155 141 137 132 130 133 128 122 119 119 117 123 120 122
315 312 306 300 294 283 279 281 256 240 232 224 216 201 206 221 223 195 191 186 178 167 156 159 161 159 161 161 162 151 141 143 143 141 143 141 140 137 129 117 118 127 131
316 313 309 305 303 297 289 279 288 307 276 227 217 208 209 208 190 176 175 167 166 164 161 162 158 154 159 161 161 153 146 148 147 148 150 147 143 138 133 131 127 127 131
321 324 327 315 312 308 299 282 248 211 141 84 85 159 178 171 159 153 145 136 151 171 164 161 158 155 154 157 157 150 144 145 146 148 149 148 144 142 142 143 143 142 140
327 325 325 326 328 325 321 314 276 187 145 129 115 82 99 110 118 140 145 143 153 153 150 147 146 152 158 161 154 147 146 149 150 149 151 152 150 145 150 156 158 158 144
331 340 348 339 341 349 357 14 46 97 125 134 139 139 140 133 137 151 166 150 141 140 137 141 151 167 164 158 151 146 145 148 149 147 153 155 154 154 157 163 167 167 167
331 334 345 346 348 358 13 39 86 116 124 131 140 157 162 154 153 158 165 158 151 154 159 172 177 178 166 155 150 147 148 152 153 151 153 155 153 152 155 159 166 167 161
329 329 328 334 344 3 14 49 86 106 116 119 121 143 161 143 150 158 162 159 148 148 168 183 185 176 172 162 155 151 151 152 154 152 152 154 154 153 149 149 154 159 160
326 337 341 340 344 357 23 62 93 100 105 117 131 135 148 148 150 156 157 146 131 127 131 176 164 159 161 156 155 155 157 160 161 157 152 151 154 158 156 154 157 157 164
313 332 346 354 8 24 37 55 84 103 111 119 125 135 143 138 140 144 141 130 124 113 49 319 195 152 149 148 148 148 149 151 151 155 151 151 154 159 160 159 160 167 173
294 296 324 344 12 31 39 53 74 98 111 121 128 130 131 130 131 134 137 134 129 69 314 293 171 145 148 151 153 151 152 153 155 154 143 147 153 158 161 164 164 164 168
312 282 256 275 298 23 73 80 86 101 113 119 122 120 122 127 134 137 145 153 172 248 287 304 146 150 152 152 154 153 157 160 163 160 151 147 150 156 159 165 172 176 177
Height
1480 1477 1475 1472 1470 1467 1465 1463 1460 1458 1456 1454 1452 1451 1450 1450 1451 1452 1453 1453 1454 1454 1454 1454 1454 1453 1453 1452 1452 1452 1451 1451 1450 1450 1451 1453 1454 1456 1458 1460 1463 1466 1468
1474 1471 1468 1466 1463 1461 1459 1458 1456 1453 1451 1449 1447 1445 1444 1444 1444 1444 1444 1446 1447 1447 1448 1448 1448 1448 1448 1448 1447 1447 1447 1446 1446 1445 1447 1449 1451 1453 1456 1459 1461 1464 1467
1466 1463 1460 1458 1456 1454 1452 1451 1449 1447 1445 1444 1442 1440 1439 1438 1437 1437 1437 1438 1439 1440 1441 1442 1442 1443 1443 1442 1442 1442 1441 1441 1440 1440 1442 1445 1448 1451 1454 1457 1460 1463 1467
1457 1454 1452 1449 1448 1446 1445 1443 1442 1441 1439 1438 1436 1435 1433 1432 1431 1431 1431 1431 1432 1432 1434 1435 1436 1437 1437 1437 1436 1436 1435 1435 1434 1435 1437 1440 1444 1447 1451 1455 1459 1463 1466
1447 1444 1442 1440 1439 1437 1436 1435 1434 1433 1432 1431 1430 1429 1428 1427 1425 1425 1425 1425 1425 1425 1426 1427 1429 1430 1431 1431 1431 1430 1430 1429 1428 1429 1432 1436 1440 1444 1447 1452 1456 1461 1466
1436 1434 1432 1430 1429 1428 1427 1426 1426 1425 1424 1423 1422 1422 1421 1421 1420 1419 1419 1418 1418 1418 1419 1420 1422 1424 1425 1426 1425 1425 1424 1423 1423 1425 1427 1431 1435 1439 1444 1449 1453 1458 1464
1425 1422 1421 1419 1418 1417 1417 1416 1416 1416 1415 1415 1414 1414 1414 1414 1414 1413 1413 1413 1412 1412 1412 1413 1415 1418 1420 1420 1420 1420 1419 1418 1419 1421 1423 1427 1431 1435 1441 1447 1452 1457 1460
1413 1411 1409 1407 1406 1405 1405 1405 1406 1406 1406 1405 1405 1406 1405 1406 1406 1407 1407 1407 1406 1406 1405 1406 1408 1411 1414 1415 1416 1416 1415 1415 1415 1417 1420 1424 1430 1435 1440 1446 1452 1459 1464
1403 1399 1397 1395 1394 1393 1393 1393 1394 1395 1395 1396 1396 1397 1397 1398 1399 1400 1400 1401 1400 1400 1399 1399 1402 1405 1408 1410 1412 1413 1413 1413 1414 1417 1420 1425 1430 1436 1442 1447 1453 1458 1464
1391 1387 1385 1383 1381 1381 1381 1382 1383 1384 1385 1386 1387 1388 1389 1389 1391 1392 1393 1394 1394 1394 1393 1393 1396 1399 1403 1406 1408 1410 1411 1412 1414 1418 1422 1428 1433 1439 1444 1449 1453 1458 1463
1381 1376 1373 1371 1369 1369 1369 1370 1372 1373 1374 1376 1377 1378 1380 1381 1383 1385 1387 1388 1389 1388 1388 1387 1389 1393 1398 1402 1406 1409 1410 1412 1416 1419 1424 1430 1436 1441 1447 1452 1457 1461 1465
1371 1366 1362 1360 1359 1358 1358 1359 1361 1363 1364 1366 1368 1369 1371 1373 1375 1377 1380 1382 1383 1383 1382 1382 1384 1387 1393 1399 1403 1408 1410 1413 1417 1421 1426 1432 1437 1443 1448 1453 1458 1463 1468
1363 1358 1353 1351 1349 1348 1348 1349 1351 1353 1355 1357 1360 1361 1363 1366 1368 1371 1374 1376 1378 1378 1378 1378 1380 1383 1389 1396 1401 1406 1410 1413 1417 1422 1427 1433 1439 1444 1449 1454 1459 1464 1469
1357 1352 1347 1344 1342 1341 1340 1341 1343 1345 1347 1350 1353 1355 1357 1360 1362 1365 1368 1370 1372 1374 1375 1375 1377 1379 1385 1392 1399 1405 1409 1413 1417 1423 1428 1434 1440 1445 1449 1454 1458 1463 1468
1353 1348 1343 1340 1337 1336 1335 1336 1337 1339 1341 1345 1348 1350 1353 1355 1358 1361 1363 1366 1368 1370 1371 1373 1374 1377 1381 1388 1396 1403 1408 1413 1419 1424 1429 1434 1439 1445 1449 1453 1458 1462 1466
1351 1346 1341 1338 1335 1333 1333 1333 1334 1335 1338 1341 1344 1347 1349 1352 1355 1357 1360 1362 1365 1366 1368 1370 1372 1375 1379 1386 1394 1401 1407 1413 1419 1424 1429 1434 1439 1444 1448 1453 1457 1461 1465
1350 1345 1340 1337 1334 1333 1332 1332 1332 1334 1336 1338 1341 1344 1347 1350 1353 1355 1357 1360 1362 1363 1365 1368 1370 1375 1380 1387 1394 1401 1407 1413 1419 1424 1429 1434 1438 1443 1447 1452 1456 1460 1464
1351 1345 1340 1337 1335 1333 1332 1332 1332 1333 1335 1337 1340 1343 1346 1349 1351 1354 1356 1358 1359 1361 1364 1366 1370 1375 1381 1387 1395 1401 1407 1413 1419 1424 1429 1433 1438 1442 1447 1451 1455 1459 1463
1352 1346 1342 1339 1336 1335 1334 1333 1333 1334 1335 1338 1340 1343 1346 1348 1351 1353 1355 1356 1358 1360 1363 1367 1371 1376 1383 1389 1396 1403 1408 1414 1419 1424 1429 1433 1438 1442 1447 1451 1455 1459 1463
1354 1349 1345 1342 1339 1337 1336 1336 1336 1336 1337 1339 1341 1343 1346 1349 1351 1353 1355 1357 1359 1362 1365 1369 1374 1379 1385 1391 1398 1404 1409 1414 1419 1424 1429 1434 1438 1443 1447 1451 1455 1459 1462
1356 1352 1348 1345 1342 1341 1340 1339 1339 1339 1340 1341 1343 1345 1347 1349 1351 1353 1355 1359 1362 1365 1369 1373 1377 1382 1388 1393 1399 1405 1410 1415 1420 1425 1429 1434 1438 1443 1447 1452 1455 1459 1462
1358 1355 1351 1349 1346 1345 1343 1343 1342 1343 1343 1344 1346 1347 1348 1350 1352 1354 1357 1361 1365 1369 1373 1377 1381 1385 1390 1395 1400 1405 1410 1415 1420 1425 1430 1434 1439 1443 1447 1451 1455 1458 1461
1360 1357 1354 1352 1350 1348 1347 1346 1346 1346 1347 1347 1348 1348 1349 1351 1353 1356 1360 1364 1368 1373 1377 1380 1384 1388 1392 1397 1402 1407 1411 1416 1421 1425 1430 1434 1439 1443 1447 1450 1453 1457 1460
1359 1357 1356 1354 1353 1352 1351 1350 1350 1350 1350 1351 1351 1352 1353 1354 1356 1359 1363 1368 1373 1377 1381 1384 1388 1391 1395 1399 1404 1408 1413 1417 1422 1426 1431 1435 1439 1443 1446 1449 1452 1455 1459
1359 1357 1356 1355 1355 1354 1354 1353 1353 1353 1354 1354 1355 1355 1356 1358 1361 1364 1369 1373 1377 1381 1385 1388 1391 1395 1398 1402 1406 1410 1414 1419 1423 1427 1431 1435 1439 1442 1446 1449 1451 1454 1457
1361 1358 1356 1356 1355 1355 1355 1355 1356 1356 1356 1357 1358 1359 1361 1363 1366 1370 1374 1378 1381 1385 1388 1391 1395 1398 1401 1405 1409 1412 1416 1420 1424 1428 1432 1435 1439 1442 1445 1448 1450 1453 1455